Change the Weather History Date:

Wednesday, October 16, 2013

  Actual Average Record
Temperature  
Mean Temperature 46 °F -  
Max Temperature 51 °F 51 °F 69 °F (2000)
Min Temperature 42 °F 37 °F 28 °F (1999)
Degree Days  
Heating Degree Days 18    
Moisture  
Dew Point 45 °F    
Average Humidity 92    
Maximum Humidity 100    
Minimum Humidity 70    
Precipitation  
Precipitation 0.02 in 0.06 in - ()
Sea Level Pressure  
Sea Level Pressure 29.93 in    
Wind  
Wind Speed 4 mph ()    
Max Wind Speed 9 mph    
Max Gust Speed -    
Visibility 7.2 miles    
Events Fog , Rain    
Averages and records for this station are not official NWS values.
T = Trace of Precipitation, MM = Missing Value Source: Averaged Metar Reports

Daily Weather History Graph

Daily Weather History Graph

Search for Another Location

Airport or City:

Trip Planner

Search our weather history database for the weather conditions in past years. The results will help you decide how hot, cold, wet, or windy it might be!

Date:

Astronomy

Oct. 16, 2013 Rise Set
Actual Time 7:38 AM CEST 6:23 PM CEST
Civil Twilight 7:06 AM CEST 6:55 PM CEST
Nautical Twilight 6:29 AM CEST 7:32 PM CEST
Astronomical Twilight 5:52 AM CEST 8:09 PM CEST
Moon 5:03 PM CEST (10/16) 4:34 AM CEST (10/16)
Length of Visible Light 11h 49m
Length of Day
10h 44m
Waxing Gibbous, 92% of the Moon is Illuminated
Oct 16
Waxing Gibbous
Oct 19
Full
Oct 27
Last Quarter
Nov 3
New
Nov 10
First Quarter

Hourly Weather History & Observations

Time (CEST) Temp. Windchill Dew Point Humidity Pressure Visibility Wind Dir Wind Speed Gust Speed Precip Events Conditions
12:00 AM 47 °F - 45 °F 88% 29.82 in 11 mi NNE 4.5 mph - -   Overcast
12:20 AM 46.4 °F - 44.6 °F 93% 29.80 in 6.2 mi ENE 1.2 mph - N/A   Mostly Cloudy
12:50 AM 46.4 °F - 44.6 °F 93% 29.80 in 6.2 mi Variable 2.3 mph - N/A   Mostly Cloudy
1:00 AM 46 °F - 45 °F 94% 29.81 in 11 mi East 2.2 mph - -   Overcast
1:20 AM 46.4 °F - 46.4 °F 100% 29.80 in 6.2 mi ESE 2.3 mph - N/A Rain Light Rain
1:50 AM 46.4 °F - 46.4 °F 100% 29.80 in 5.0 mi Variable 2.3 mph - N/A Rain Heavy Rain
2:00 AM 46 °F - 46 °F 99% 29.81 in 5 mi ENE 2.2 mph - - Rain Heavy Rain
2:20 AM 44.6 °F 41.4 °F 44.6 °F 100% 29.80 in 4.3 mi West 5.8 mph - N/A Rain Rain
2:50 AM 44.6 °F - 44.6 °F 100% 29.80 in 6.2 mi WNW 2.3 mph - N/A Rain Light Rain
3:20 AM 44.6 °F 43.1 °F 44.6 °F 100% 29.80 in 6.2 mi SW 3.5 mph - N/A   Mostly Cloudy
3:50 AM 44.6 °F 43.1 °F 44.6 °F 100% 29.80 in 6.2 mi SW 3.5 mph - N/A   Mostly Cloudy
4:00 AM 45 °F - 44 °F 96% 29.83 in 11 mi SW 4.5 mph - - Rain Light Rain
4:20 AM 44.6 °F - 44.6 °F 100% 29.83 in - West 2.3 mph - N/A   Clear
4:50 AM 44.6 °F - 44.6 °F 100% 29.83 in 6.2 mi Variable 1.2 mph - N/A Fog Shallow Fog
5:20 AM 44.6 °F - 44.6 °F 100% 29.83 in 6.2 mi Calm Calm - N/A Fog Shallow Fog
5:50 AM 44.6 °F - 44.6 °F 100% 29.83 in 6.2 mi Variable 1.2 mph - N/A   Mostly Cloudy
6:00 AM 44 °F - 44 °F 100% 29.86 in 11 mi SW 2.2 mph - -   Overcast
6:20 AM 44.6 °F - 44.6 °F 100% 29.86 in 6.2 mi Variable 1.2 mph - N/A   Mostly Cloudy
6:50 AM 44.6 °F 42.2 °F 44.6 °F 100% 29.86 in 6.2 mi WNW 4.6 mph - N/A   Mostly Cloudy
7:00 AM 45 °F - 45 °F 98% 29.88 in 6 mi WNW 4.5 mph - - Rain Light Rain
7:20 AM 46.4 °F 45.2 °F 46.4 °F 100% 29.86 in 5.0 mi WNW 3.5 mph - N/A   Mostly Cloudy
7:50 AM 46.4 °F 45.2 °F 46.4 °F 100% 29.89 in 3.1 mi West 3.5 mph - N/A Rain Light Rain Showers
8:00 AM 46 °F - 46 °F 99% 29.90 in 3 mi West 4.5 mph - - Rain Light Rain
8:20 AM 46.4 °F 45.2 °F 46.4 °F 100% 29.89 in - West 3.5 mph - N/A Rain Light Rain
8:50 AM 46.4 °F 44.3 °F 46.4 °F 100% 29.89 in 3.7 mi WNW 4.6 mph - N/A   Mostly Cloudy
9:00 AM 46 °F - 46 °F 99% 29.92 in 4 mi West 4.5 mph - - Rain Light Rain Showers
9:20 AM 46.4 °F 43.5 °F 46.4 °F 100% 29.92 in 5.0 mi West 5.8 mph - N/A   Mostly Cloudy
9:50 AM 46.4 °F 42.9 °F 46.4 °F 100% 29.92 in 5.6 mi WNW 6.9 mph - N/A   Mostly Cloudy
10:00 AM 47 °F - 46 °F 95% 29.94 in 6 mi West 8.9 mph - - Rain Light Rain
10:20 AM 48.2 °F - 46.4 °F 93% 29.92 in 6.2 mi WNW 8.1 mph - N/A   Mostly Cloudy
10:50 AM 48.2 °F - 46.4 °F 93% 29.95 in 6.2 mi WNW 9.2 mph - N/A   Mostly Cloudy
11:20 AM 48.2 °F - 46.4 °F 93% 29.95 in 6.2 mi WNW 6.9 mph - N/A   Mostly Cloudy
11:50 AM 48.2 °F - 46.4 °F 93% 29.98 in 6.2 mi WNW 8.1 mph - N/A   Mostly Cloudy
12:00 PM 49 °F - 46 °F 86% 29.99 in 9 mi WNW 6.7 mph - -   Mostly Cloudy
12:20 PM 50.0 °F - 46.4 °F 87% 29.98 in 6.2 mi WNW 6.9 mph - N/A   Mostly Cloudy
12:50 PM 50.0 °F - 44.6 °F 82% 29.98 in 6.2 mi WNW 6.9 mph - N/A   Mostly Cloudy
1:00 PM 50 °F - 45 °F 78% 30.00 in 11 mi WNW 8.9 mph - -   Mostly Cloudy
1:20 PM 50.0 °F - 44.6 °F 82% 29.98 in 6.2 mi West 6.9 mph - N/A   Mostly Cloudy
1:50 PM 50.0 °F - 44.6 °F 82% 29.98 in 6.2 mi West 8.1 mph - N/A   Mostly Cloudy
2:00 PM 50 °F - 44 °F 73% 29.99 in 12 mi West 6.7 mph - -   Partly Cloudy
2:20 PM 51.8 °F - 44.6 °F 76% 29.98 in 6.2 mi WNW 5.8 mph - N/A   Mostly Cloudy
2:50 PM 51.8 °F - 44.6 °F 76% 29.98 in 6.2 mi West 8.1 mph - N/A   Mostly Cloudy
3:00 PM 51 °F - 44 °F 71% 29.99 in 14 mi WNW 6.7 mph - -   Mostly Cloudy
3:20 PM 51.8 °F - 44.6 °F 76% 29.98 in 6.2 mi West 5.8 mph - N/A   Mostly Cloudy
3:50 PM 51.8 °F - 44.6 °F 76% 29.98 in 6.2 mi West 5.8 mph - N/A   Mostly Cloudy
4:00 PM 51 °F - 44 °F 70% 30.00 in 16 mi West 4.5 mph - -   Mostly Cloudy
4:20 PM 50.0 °F - 44.6 °F 82% 29.98 in 6.2 mi West 5.8 mph - N/A   Mostly Cloudy
4:50 PM 50.0 °F - 46.4 °F 87% 29.98 in 6.2 mi WSW 6.9 mph - N/A   Mostly Cloudy
5:20 PM 50.0 °F - 46.4 °F 87% 29.98 in 6.2 mi WNW 4.6 mph - N/A   Mostly Cloudy
5:50 PM 50.0 °F - 46.4 °F 87% 30.01 in 6.2 mi WNW 3.5 mph - N/A   Mostly Cloudy
6:00 PM 50 °F - 46 °F 81% 30.01 in 12 mi West 2.2 mph - -   Overcast
6:20 PM 48.2 °F - 46.4 °F 93% 29.98 in 6.2 mi Variable 1.2 mph - N/A   Mostly Cloudy
6:50 PM 48.2 °F - 46.4 °F 93% 30.01 in 6.2 mi Variable 1.2 mph - N/A   Mostly Cloudy
7:00 PM 49 °F - 46 °F 86% 30.01 in 12 mi South 2.2 mph - -   Overcast
7:20 PM 48.2 °F - 46.4 °F 93% 30.01 in 6.2 mi Variable 1.2 mph - N/A   Mostly Cloudy
7:50 PM 48.2 °F - 46.4 °F 93% 30.01 in 6.2 mi SE 3.5 mph - N/A   Mostly Cloudy
8:00 PM 48 °F - 46 °F 89% 30.02 in 12 mi SE 4.5 mph - -   Partly Cloudy
8:20 PM 48.2 °F - 46.4 °F 93% 30.01 in 6.2 mi East 3.5 mph - N/A   Mostly Cloudy
8:50 PM 46.4 °F 44.3 °F 46.4 °F 100% 30.01 in 6.2 mi ESE 4.6 mph - N/A   Mostly Cloudy
9:00 PM 47 °F - 45 °F 92% 30.03 in 12 mi SE 2.2 mph - -   Mostly Cloudy
9:20 PM 46.4 °F 44.3 °F 46.4 °F 100% 30.01 in 6.2 mi East 4.6 mph - N/A   Scattered Clouds
9:50 PM 44.6 °F 41.4 °F 44.6 °F 100% 30.01 in - ESE 5.8 mph - N/A   Clear
10:00 PM 45 °F - 45 °F 99% 30.03 in 12 mi ESE 6.7 mph - -   Clear
10:20 PM 44.6 °F 40.7 °F 44.6 °F 100% 29.98 in - ESE 6.9 mph - N/A   Clear
10:50 PM 42.8 °F 39.3 °F 42.8 °F 100% 29.98 in - ESE 5.8 mph - N/A   Clear
11:20 PM 42.8 °F 38.6 °F 42.8 °F 100% 29.98 in 6.2 mi ESE 6.9 mph - N/A Fog Shallow Fog
11:50 PM 42.8 °F 38.0 °F 42.8 °F 100% 29.98 in - ESE 8.1 mph - N/A   Clear